Location: Artiguedieu
(43.5000°N, 0.5454°E)
Time: 12:17:55
(UTC+00:00)

ADEOS - Pass Details

Date: 06 December 2020
Orbit: 792 x 795 km, 98.9° (Epoch: 28 January)

Event Time Altitude Azimuth Distance (km) Brightness Sun altitude
Rises 04:27:18 0° 16° (NNE) 3,307 6.9 -29.8°
Reaches altitude 10° 04:29:40 10° 19° (NNE) 2,372 6.2 -29.4°
Maximum altitude 04:34:53 67° 103° (ESE) 859 3.8 -28.5°
Drops below altitude 10° 04:40:03 10° 186° (S) 2,353 6.0 -27.5°
Sets 04:42:23 0° 189° (S) 3,278 6.8 -27.1°
